Date,TemperatureHighF,TemperatureAvgF,TemperatureLowF,DewpointHighF,DewpointAvgF,DewpointLowF,HumidityHigh,HumidityAvg,HumidityLow,PressureMaxIn,PressureMinIn,WindSpeedMaxMPH,WindSpeedAvgMPH,GustSpeedMaxMPH,PrecipitationSumIn
2013-2-1,33.7,23.0,15.5,27.0,10.8,0.0,91,61,36,30.06,29.73,14,3,25,0.00
2013-2-2,39.6,28.9,15.8,29.0,23.4,10.0,91,80,48,30.06,29.80,11,2,25,0.01
2013-2-3,35.9,30.0,23.6,27.0,22.9,18.0,91,75,59,29.85,29.72,10,4,22,0.09
2013-2-4,46.4,36.1,20.5,29.0,21.0,16.0,91,57,36,29.89,29.79,9,2,18,0.03
2013-2-5,50.1,41.9,37.3,36.0,28.0,18.0,87,59,41,29.87,29.75,7,2,10,0.00
2013-2-6,52.4,42.8,34.2,32.0,26.3,22.0,73,54,31,30.06,29.87,8,2,12,0.00
2013-2-7,43.4,39.7,37.2,38.0,31.0,23.0,96,73,49,30.06,29.82,4,1,5,0.48
2013-2-8,44.3,38.8,27.8,41.0,34.5,25.0,98,85,57,29.97,29.74,12,2,22,0.05
2013-2-9,51.1,36.8,23.4,26.0,17.9,6.0,95,54,16,30.13,29.97,5,2,8,0.00
2013-2-10,50.3,44.1,39.9,45.0,23.4,7.0,91,49,18,30.15,29.94,9,2,20,0.79
2013-2-11,52.0,48.3,42.4,49.0,37.4,8.0,92,70,23,29.97,29.90,11,3,19,0.18
2013-2-12,45.8,38.9,32.2,35.0,27.1,7.0,97,65,23,29.98,29.74,5,1,8,0.24
2013-2-13,46.3,37.9,29.0,44.0,35.4,27.0,99,90,75,29.73,29.50,10,2,19,0.20
2013-2-14,47.3,34.7,25.3,31.0,26.4,23.0,96,75,40,29.88,29.73,6,1,11,0.00
2013-2-15,47.4,38.1,28.6,35.0,28.8,26.0,95,71,47,29.92,29.81,7,2,15,0.04
2013-2-16,28.2,23.1,16.1,25.0,17.9,6.0,92,81,58,29.82,29.65,14,2,16,0.00
2013-2-17,28.8,21.3,14.3,14.0,6.6,3.0,72,55,37,30.00,29.75,9,3,20,0.01
2013-2-18,49.5,35.7,23.6,27.0,22.0,13.0,82,60,37,30.10,29.93,5,2,16,0.07
2013-2-19,43.4,36.3,28.1,36.0,25.1,9.0,94,67,41,29.93,29.73,11,4,24,0.29
2013-2-20,39.5,30.4,24.2,18.0,7.8,-7.0,69,40,22,29.95,29.87,7,2,17,0.00
2013-2-21,56.3,40.7,26.4,36.0,16.3,-1.0,94,42,12,30.00,29.90,6,1,12,0.47
2013-2-22,52.4,42.1,33.1,49.0,40.0,32.0,98,92,80,30.01,29.90,7,2,15,0.38
2013-2-23,51.7,46.9,42.3,49.0,44.8,38.0,99,92,75,29.90,29.72,4,1,14,0.29
2013-2-24,51.5,39.4,31.5,36.0,29.3,18.0,98,70,27,29.90,29.73,6,2,10,0.00
2013-2-25,44.3,37.4,33.5,33.0,24.7,15.0,95,61,42,29.91,29.76,4,1,6,0.00
2013-2-26,47.2,38.0,33.9,45.0,35.5,30.0,99,91,70,29.75,29.38,14,2,26,0.95
2013-2-27,47.8,37.5,30.7,32.0,28.6,24.0,88,72,45,29.62,29.48,9,2,15,0.00
2013-2-28,33.3,28.7,25.6,26.0,22.4,21.0,87,77,66,29.71,29.55,11,2,18,0.03